IQ5QD-13 Weather Reports


time (UTC)temp
F
wind
direction
speed
knots
gust
knots
rain 1hr
in
rain 24hr
in
rain mn
in
humidity
%
barometer
mb
20260906103604 88 252 2.6 5.2 0.00 0.00 0.00 58 1016.3
20260906100612 88 162 1.7 2.6 0.00 0.00 0.00 57 1016.5
20260906093531 85 257 1.7 5.2 0.00 0.00 0.00 62 1016.6
20260906090556 84 159 0.9 1.7 0.00 0.00 0.00 66 1016.8
20260906083536 85 151 0.0 1.7 0.00 0.00 0.00 61 1016.7
20260906080540 80 107 0.0 0.9 0.00 0.00 0.00 71 1016.7
20260906073606 76 95 0.0 0.9 0.00 0.00 0.00 76 1016.7
20260906070530 74 112 1.7 2.6 0.00 0.00 0.00 77 1016.4
20260906063538 74 0.0 0.0 0.00 0.00 0.00 78 1016.2
20260906060556 69 0.0 0.0 0.00 0.00 0.00 87 1016.0
20260906053620 66 0.0 0.0 0.00 0.00 0.00 91 1015.9
20260906050535 64 0.0 0.0 0.00 0.00 0.00 91 1015.8
20260906043604 63 229 0.0 0.9 0.00 0.00 0.00 91 1015.6
20260906040535 63 0.0 0.0 0.00 0.00 0.00 91 1015.4
20260906033545 63 0.0 0.0 0.00 0.00 0.00 91 1015.3
20260906030612 64 0.0 0.0 0.00 0.00 0.00 91 1015.2
20260906023536 64 0.0 0.0 0.00 0.00 0.00 91 1015.2
20260906020612 65 0.0 0.0 0.00 0.00 0.00 91 1015.2
20260906013533 65 0.0 0.0 0.00 0.00 0.00 91 1015.2
20260906010556 66 0.0 0.0 0.00 0.00 0.00 91 1015.1
20260906003537 66 0.0 0.0 0.00 0.00 0.00 90 1015.2
20260906000612 67 106 0.9 1.7 0.00 0.00 0.00 90 1015.2
20260905233533 67 0.0 0.0 0.00 0.00 0.00 89 1015.1
20260905230541 67 0.0 0.0 0.00 0.00 0.00 89 1015.3
20260905223605 67 125 0.0 0.9 0.00 0.00 0.00 88 1015.2
20260905220539 68 0.0 0.0 0.00 0.00 0.00 87 1015.0
20260905213604 68 101 0.0 0.9 0.00 0.00 0.00 85 1014.9
20260905210612 70 151 0.9 0.9 0.00 0.00 0.00 83 1014.8
20260905203539 72 103 0.9 1.7 0.00 0.00 0.00 80 1014.6
20260905200613 70 6 0.9 1.7 0.00 0.00 0.00 81 1014.5
20260905193529 71 0.0 0.0 0.00 0.00 0.00 80 1014.2
20260905190543 72 99 0.9 1.7 0.00 0.00 0.00 79 1013.9
20260905183546 74 111 2.6 2.6 0.00 0.00 0.00 76 1013.7
20260905180559 77 104 0.9 2.6 0.00 0.00 0.00 71 1013.5
20260905173605 80 0.0 0.0 0.00 0.00 0.00 66 1013.3
20260905170538 84 123 0.9 1.7 0.00 0.00 0.00 58 1013.1
20260905163517 87 239 0.9 1.7 0.00 0.00 0.00 58 1013.2
20260905160522 87 241 2.6 5.2 0.00 0.00 0.00 55 1013.0
20260905153533 88 160 4.3 7.0 0.00 0.00 0.00 59 1012.7
20260905150557 88 183 5.2 11.3 0.00 0.00 0.00 59 1012.9
20260905143605 89 173 4.3 9.6 0.00 0.00 0.00 57 1013.1
20260905140539 89 170 2.6 6.1 0.00 0.00 0.00 52 1013.2
20260905133517 90 173 4.3 9.6 0.00 0.00 0.00 47 1013.5
20260905130522 90 199 4.3 7.8 0.00 0.00 0.00 49 1013.9
20260905123546 90 188 4.3 8.7 0.00 0.00 0.00 51 1014.0
20260905120522 89 176 3.5 7.8 0.00 0.00 0.00 55 1014.2
20260905113533 90 172 2.6 7.0 0.00 0.00 0.00 55 1014.4
20260905110557 88 160 4.3 7.0 0.00 0.00 0.00 58 1014.4